Regional Weather Roundup
Issued by NWS

Home | Current Version | Previous Version | Text Only | Print | Product List | Glossary On
Versions: 1 2 3 4 5 6 7 8 9 10 11 12 13 14 15 16 17 18 19 20 21 22 23 24 25 26 27 28 29 30 31 32 33 34 35 36 37 38 39 40 41 42 43 44 45 46 47 48 49 50
000
ASUS46 KLOX 302113
RWRCA

SOUTHERN CALIFORNIA WEATHER ROUNDUP
NATIONAL WEATHER SERVICE OXNARD CALIFORNIA
200 PM PDT SAT MAY 30 2015

NOTE: "FAIR" INDICATES FEW OR NO CLOUDS BELOW 12,000 FEET WITH NO
SIGNIFICANT WEATHER AND/OR OBSTRUCTIONS TO VISIBILITY.

  -  STATIONS PRECEEDED BY AN ASTERISK (*) ARE NOT NWS OR FAA
     STATIONS AND ARE NOT SUBJECT TO NWS AND FAA QUALITY CONTROL.

CAZ041-042-087-302200-
LA AND ORANGE COUNTY COASTAL AREAS


CITY           SKY/WX    TMP DP  RH WIND       PRES   REMARKS
L.A. DOWNTOWN  SUNNY     74  58  57 VRB3      29.93F
L.A. AIRPORT   PTSUNNY   65  57  75 W10       29.96F
LONG BEACH     MOSUNNY   70  58  65 SW7       29.95F

CITY           SKY/WX    TMP DP  RH WIND       PRES   REMARKS
AVALON           N/A     66 N/A N/A MISG        N/A
FULLERTON      SUNNY     75  56  51 SW8       29.94S
*GETTY CENTER    N/A     72  55  56 S7          N/A
HAWTHORNE      MOSUNNY   69  57  65 W9        29.95F
*LOS ALAMITOS  PTSUNNY   70  59  67 S9        29.95F
*REDONDO BEACH   N/A     68  58  70 W3        29.96S
SANTA ANA      MOSUNNY   71  57  61 S10       29.95F
STA MONICA APT MOSUNNY   65  57  75 SW8       29.96F
TORRANCE       PTSUNNY   72  59  64 NW12      29.96F HAZE
*UCLA            N/A     68  55  64 S7        29.93F

$$

CAZ547-548-048-302200-
LA COUNTY VALLEYS AND INLAND EMPIRE


CITY           SKY/WX    TMP DP  RH WIND       PRES   REMARKS
BURBANK        SUNNY     82  56  40 S8        29.93F
VAN NUYS       SUNNY     86  55  34 E10       29.92F

CITY           SKY/WX    TMP DP  RH WIND       PRES   REMARKS
CORONA AIRPORT CLEAR     83  59  44 W13       29.91F
*CHATSWORTH      N/A     87  54  31 SE1       29.89F
CHINO          PTSUNNY   90  52  27 W12       29.92F
MARCH AFB      MOSUNNY   91  53  27 NW10      29.93F
*NORTHRIDGE      N/A     86  50  28 SE5         N/A
ONTARIO        PTSUNNY   89  54  30 W10       29.92F
*PASADENA        N/A     84  61  45 E5          N/A
POMONA         SUNNY     82  55  39 W9G18     29.97
RIVERSIDE      SUNNY     89  57  33 W12       29.91F
SAN BERNARDINO PTSUNNY   91  45  19 MISG      29.92F
*WHITEMAN AP   NOT AVBL
*WOODLAND HILL   N/A     90  52  27 NE6         N/A

$$

CAZ054-055-302200-
LA AND SAN BERNARDINO COUNTY MOUNTAINS


CITY           SKY/WX    TMP DP  RH WIND       PRES   REMARKS
*BIG BEAR AIRP CLEAR     73  32  21 W9G18     30.26S
SANDBERG       SUNNY     88  29  12 S17G30    30.11F

$$

CAZ028-029-059-060-099-302200-
ANTELOPE VALLEY AND SURROUNDING AREAS


CITY           SKY/WX    TMP DP  RH WIND       PRES   REMARKS
LANCASTER      SUNNY     94  28   9 W18G29    29.95F
PALMDALE       SUNNY     93  32  11 SW14G23   29.95F

CITY           SKY/WX    TMP DP  RH WIND       PRES   REMARKS
29 PALMS       SUNNY     97  38  13 S9        29.98F HX  92
BARSTOW/DAGGET SUNNY    100  26   7 NW8       29.89F HX  93
BISHOP         MOSUNNY   94  23   8 S16G24    29.97F
CHINA LAKE     MOSUNNY   98  22   6 S10       29.91F HX  91
EDWARDS AFB    PTSUNNY   96  21   6 S6        29.91F HX  90
MOJAVE         FAIR      93  27   9 SW9G16    29.97F
NEEDLES        SUNNY    106  20   5 S13G22    29.86F HX  98
VICTORVILLE    SUNNY     95  25   8 S16G23    29.97F

$$

CAZ039-040-302200-
VENTURA AND SANTA BARBARA COUNTY COAST


CITY           SKY/WX    TMP DP  RH WIND       PRES   REMARKS
CAMARILLO      MOSUNNY   68  57  68 SW12      29.95F
OXNARD AIRPORT CLOUDY    64  56  75 W8        29.96F
*POINT MUGU    CLOUDY    69  57  65 S13       29.96F
SBA APT/GOLETA SUNNY     64  56  75 S9        29.96S
*SANTA BARBARA   N/A     70  56  61 W6        30.04S
*VENTURA         N/A     71  57  61 SW6       29.56S

$$

CAZ044-045-302200-
VENTURA COUNTY VALLEYS


CITY           SKY/WX    TMP DP  RH WIND       PRES   REMARKS
*SIMI VALLEY     N/A     82  59  45 W9        29.87S
*OJAI            N/A     89  55  31 CALM      29.85S
*FILLMORE        N/A     82  61  47 SW1       29.81F

$$

CAZ053-302200-
VENTURA COUNTY MOUNTAINS


CITY           SKY/WX    TMP DP  RH WIND       PRES   REMARKS

$$

CAZ034-035-036-302200-
CENTRAL COAST AND SANTA YNEZ VALLEY


CITY           SKY/WX    TMP DP  RH WIND       PRES   REMARKS
SAN LUIS OBISP SUNNY     73  52  47 NW8       29.95S
SANTA MARIA    MOSUNNY   70  54  56 NW13      29.96F

CITY           SKY/WX    TMP DP  RH WIND       PRES   REMARKS
*CAL POLY SLO    N/A     72  55  56 SW6         N/A
*LOMPOC        SUNNY     64  52  63 W14       29.98S
*PISMO BEACH     N/A     58  54  87 SW9       29.98F
*SANTA YNEZ    FAIR      82  48  30 W12       29.92S

$$

CAZ037-038-051-302200-
SAN LUIS OBISPO COUNTY INTERIOR AND CUYAMA VALLEY


CITY           SKY/WX    TMP DP  RH WIND       PRES   REMARKS
*CUYAMA          N/A     92  40  15 N1        29.80S
PASO ROBLES    SUNNY     90  48  23 SW14      29.89F

$$

CAZ032-033-061-302200-
SOUTHERN DESERTS


CITY           SKY/WX    TMP DP  RH WIND       PRES   REMARKS
BLYTHE         SUNNY    101  30   8 S8        29.85F HX  94
IMPERIAL       SUNNY     98  43  15 NE5       29.82F HX  94
PALM SPRINGS   SUNNY     99  28   8 SE8       29.88F HX  92
THERMAL        SUNNY     98  18   5 SE7       29.82F HX  91

$$

ELSEWHERE ACROSS THE WESTERN UNITED STATES AND MEXICO


CITY           SKY/WX    TMP DP  RH WIND       PRES   REMARKS
DENVER, CO     PTSUNNY   71  45  39 E12       30.22F
GRAND CANYON,  MOSUNNY   79  32  18 W3        30.27F
HONOLULU, HI   MOSUNNY   82  66  57 S8        29.98S
KAHULUI, MAUI  MOSUNNY   82  66  57 N14       30.00S
LAKE TAHOE, CA SUNNY     78  31  17 CALM      30.17S
LAS VEGAS, NV  PTSUNNY   99  15   5 VRB3      29.88F HX  91
MAMMOTH LAKES, FAIR      81  25  12 E12       30.21F
MEXICO CITY, M CLOUDY    63  50  63 SE17      30.22
PHOENIX, AZ    MOSUNNY  103  27   7 VRB3      29.86F HX  96
PORTLAND, OR   MOSUNNY   72  47  40 W6        29.94F
RENO, NV       PTSUNNY   89  25  10 NW12G20   30.02F
SALT LAKE CITY MOSUNNY   82  42  24 S9        30.05F
SAN DIEGO, CA  PTSUNNY   66  57  72 SW7       29.96F
SAN FRANCISCO, MOSUNNY   63  51  65 NW17      29.94F
SAN JOSE, CA   PTSUNNY   69  54  58 NW8       29.94F
SEATTLE, WA    SUNNY     66  46  48 S8        29.97F
TIJUANA, MEX   PTSUNNY   70  55  60 NW6       29.97F

$$

STATION/POSITION TIME  TEMP    WIND        PRES    VSBY  WAVE
                       AIR SEA DIR/SP/G                  HT/PER
                 (UTC) (F)     (DEG/KT/KT) (MB)    (MI)  (FT/S)
POINT ARGUELLO B NOT AVBL
WEST SANTA BARBA 2050   55 58  310/ 10/ 12 1014.8R         4/14
POINT CONCEPTION NOT AVBL
EAST SANTA BARBA 2000   57 60  210/  4/  6 1015.5F
SANTA MONICA BAY 2050   59 64  190/  4/  6 1014.9F         2/13


USA.gov is the U.S. government's official web portal to all federal, state and local government web resources and services.